SCP
-0 -0 -0 -0 -0 -0 -0 -0 -0 -1 -1 -1 -0 -0 -0 -0 -0 -0 -0 0 0 0 0 0 0 -0 0 0 0 0 0 0 0
0 0 -0 -0 -0 -0 -0 -0 -1 -2 -1 -1 -1 -0 -0 -0 -0 -0 0 0 0 0 -0 0 0 0 1 0 0 0 0 0 0
0 0 0 0 0 -0 -0 -0 -1 -2 -1 -1 -1 -0 -0 0 -0 0 0 0 0 0 0 0 0 0 1 1 0 0 0 0 0
0 0 1 0 -0 0 -0 -0 -1 -2 -1 -1 -0 -0 0 -0 0 0 0 0 -0 0 -0 0 0 1 1 0 1 0 0 1 0
0 0 0 -0 0 -0 -1 -1 -1 -2 -1 -1 -0 -0 -0 -0 0 0 0 0 0 0 0 0 0 1 0 0 0 0 1 1 0
0 0 0 0 0 -0 0 -0 -0 -1 -1 -0 -0 -0 -0 0 0 0 0 0 0 0 0 0 0 1 1 1 1 1 1 1 1
0 0 0 -0 0 0 0 0 0 0 -0 -0 0 0 0 0 0 0 0 0 1 0 1 1 1 1 1 1 1 1 1 1 1
0 0 0 -0 1 0 1 1 0 0 0 0 0 0 1 0 1 1 1 0 1 0 0 1 1 1 1 1 1 1 1 1 1
0 -0 0 1 2 1 2 1 1 1 1 1 1 1 1 1 1 1 0 0 0 0 1 0 0 1 1 1 1 1 1 1 1
1 1 -0 1 2 2 2 1 1 1 1 1 2 1 2 2 1 1 1 1 1 1 1 1 0 0 1 1 1 0 0 0 1
0 0 0 0 2 1 1 1 1 1 1 1 1 1 1 0 0 0 0 0 0 0 1 1 1 0 0 0 0 0 0 0 0
0 0 0 0 0 1 1 1 1 1 1 1 0 0 0 0 0 0 0 0 0 0 0 0 0 0 0 0 0 0 0 0 0
0 0 0 0 0 0 0 1 1 1 1 0 0 0 0 0 0 0 0 0 0 0 0 0 0 0 0 0 0 0 -0 0 0
0 0 0 -0 0 0 0 0 1 0 0 0 0 0 0 0 0 0 0 0 0 0 0 0 0 0 0 0 0 0 0 0 0
0 0 0 0 0 0 0 0 0 0 0 0 0 0 0 0 0 0 0 0 0 0 0 0 0 0 0 0 0 0 0 0 0
0 0 0 0 0 0 0 0 0 0 0 0 0 0 0 0 0 0 0 0 0 0 0 0 0 0 0 0 0 0 0 0 0
1 1 0 0 0 0 0 0 0 0 0 0 0 0 0 0 0 0 0 0 -0 -0 0 0 0 0 0 0 0 0 0 0 0
0 0 0 0 0 0 0 0 0 0 0 0 0 0 0 0 0 0 -0 -0 -0 -0 -0 -0 0 0 0 0 0 0 0 0 0
0 0 0 0 0 0 0 0 0 0 0 0 0 0 0 0 -0 -0 -0 -0 -0 -0 -0 0 0 0 0 0 0 0 0 0 0
0 0 0 0 0 0 0 0 0 0 0 0 0 0 0 0 0 -0 -0 -0 -0 -0 -0 -0 0 0 0 0 0 0 0 0 0
Wind_Speed_500mb
68 80 81 93 86 78 64 80 81 71 61 52 55 59 68 59 50 57 55 44 41 38 34 36 38 31 33 31 33 28 32 35 28
33 71 71 85 88 68 87 72 91 75 63 53 53 58 62 65 58 53 54 56 49 39 39 28 37 37 34 38 39 30 35 35 32
41 49 64 54 78 79 90 84 89 79 61 54 49 57 56 56 54 54 53 52 51 50 41 43 39 27 32 34 32 33 35 36 29
54 63 47 27 50 73 84 85 88 81 71 59 48 51 56 55 51 49 48 51 49 54 47 42 45 44 39 35 37 38 40 38 34
46 32 43 39 104 89 92 83 86 77 69 60 50 44 49 55 52 49 50 52 55 51 48 48 45 48 50 52 48 46 46 46 40
69 65 22 39 94 93 81 69 69 74 63 55 50 48 42 48 52 51 50 49 52 57 57 53 60 60 57 54 51 53 56 53 52
61 75 51 39 63 81 70 64 62 64 58 55 52 49 41 45 45 52 55 57 51 53 52 54 53 60 63 64 64 61 58 63 61
55 67 67 53 74 67 58 52 58 56 65 57 51 44 35 36 43 45 51 54 52 49 49 52 55 56 57 59 61 62 60 62 65
58 48 42 53 61 65 63 59 55 49 50 43 45 35 36 34 33 41 46 50 50 47 49 55 52 61 57 57 59 65 66 64 65
30 17 34 50 50 45 44 42 41 39 38 38 41 36 34 32 33 34 34 36 39 42 47 49 64 59 58 59 54 67 70 71 69
46 63 49 32 40 38 35 33 32 34 35 31 29 32 35 39 34 33 35 35 35 37 41 47 55 64 71 74 75 80 77 72 78
70 59 38 21 14 45 44 40 35 33 28 29 26 29 30 26 22 31 34 37 40 45 50 53 59 65 62 68 77 67 63 70 75
52 57 70 61 43 33 34 42 46 37 30 30 32 27 20 20 16 15 20 27 35 41 48 54 58 68 74 78 83 82 81 73 72
49 55 49 56 43 39 36 30 27 36 32 29 22 18 15 6 2 9 15 21 31 43 53 61 68 73 77 82 89 95 89 74 73
60 55 59 63 50 38 31 26 32 32 30 23 20 17 12 7 2 11 20 30 38 46 52 58 64 70 78 80 79 80 91 93 74
43 47 40 36 41 44 37 30 24 33 27 22 18 21 17 13 17 26 35 44 46 48 53 49 46 48 53 56 44 46 56 66 84
45 41 37 31 41 42 35 24 24 34 30 23 29 26 22 19 22 33 43 47 52 59 62 52 37 33 35 37 43 44 41 47 58
49 47 39 34 30 27 23 30 39 41 35 33 33 27 22 21 27 34 40 44 53 62 66 60 50 34 29 24 25 31 35 51 49
34 32 28 24 21 24 27 36 40 43 39 32 29 25 17 16 21 28 34 43 51 52 58 60 58 52 42 29 19 12 22 33 33
29 26 24 22 22 22 23 41 36 45 40 31 26 19 13 12 18 23 30 39 45 51 52 49 49 46 40 37 38 37 33 40 31
Wind_Direction_500mb
196 189 190 186 187 189 185 193 202 201 200 204 205 200 202 208 207 202 209 220 222 227 226 238 243 231 240 240 247 249 243 250 264
172 181 185 185 191 193 209 202 202 205 200 206 209 206 201 210 216 215 213 222 224 227 231 226 226 236 242 239 244 246 247 255 258
165 179 170 190 199 202 193 198 200 209 208 207 211 212 209 208 213 219 222 225 227 230 236 238 234 238 244 237 235 246 247 246 250
168 204 211 196 233 221 199 194 202 206 206 207 212 213 215 215 214 215 217 221 222 224 226 232 235 238 237 239 249 241 250 256 254
143 171 196 251 222 203 191 190 195 203 205 211 216 219 218 218 221 222 222 222 225 229 227 222 229 236 246 252 251 239 238 249 255
132 146 156 286 177 176 174 179 194 203 205 213 219 219 225 226 227 230 234 233 225 228 232 231 230 234 237 244 246 245 248 249 251
179 177 140 206 176 177 180 186 195 199 209 213 218 221 232 229 231 234 239 243 242 239 233 238 237 235 241 244 248 249 247 249 251
175 160 166 177 171 173 174 182 192 203 205 209 219 227 231 235 235 241 244 250 248 250 247 248 250 252 248 248 249 250 246 244 247
195 183 183 167 143 150 168 174 171 169 185 191 199 207 219 230 238 243 250 253 256 257 257 261 259 257 253 252 256 258 257 251 248
122 83 149 158 161 160 161 171 185 188 189 193 203 202 204 220 232 243 248 252 254 255 251 256 252 253 251 248 245 263 255 256 252
147 165 166 166 162 166 174 179 179 183 191 195 196 205 209 216 227 237 239 244 245 247 251 252 252 253 253 255 257 254 253 251 251
193 185 164 146 206 174 173 179 178 186 194 176 180 197 208 217 236 247 262 265 268 269 269 268 265 263 258 252 255 264 264 252 250
171 143 141 164 198 200 185 182 173 161 178 188 192 213 221 246 263 270 282 288 288 283 278 274 268 265 260 255 255 256 258 257 254
138 168 161 174 194 191 187 183 177 168 186 190 199 209 252 215 262 321 330 321 309 298 289 280 273 266 262 259 254 252 252 253 253
133 138 157 162 164 171 182 178 170 169 190 198 207 225 191 164 12 0 351 343 339 335 321 298 284 277 269 263 259 257 250 247 247
141 143 140 165 173 177 179 184 194 183 191 200 220 169 136 109 75 43 24 12 4 354 344 322 304 296 290 284 273 264 251 245 238
142 158 173 180 181 184 183 181 181 177 180 187 167 140 119 100 60 40 33 27 23 18 13 2 336 312 297 281 260 258 264 254 238
154 149 158 179 190 184 177 171 173 170 173 173 156 138 118 92 59 45 43 34 31 26 27 19 12 2 337 312 259 243 249 244 242
168 173 180 182 181 167 157 168 176 175 173 171 159 156 131 91 71 66 54 49 50 46 39 34 30 29 29 23 13 272 249 241 234
163 170 169 170 170 170 171 173 176 171 166 171 178 177 160 115 92 86 78 69 64 62 58 56 56 55 63 73 88 91 108 134 162
Wind_Speed_850mb
68 80 81 93 86 78 64 80 81 71 61 52 55 59 68 59 50 57 55 44 41 38 34 36 38 31 33 31 33 28 32 35 28
33 71 71 85 88 68 87 72 91 75 63 53 53 58 62 65 58 53 54 56 49 39 39 28 37 37 34 38 39 30 35 35 32
41 49 64 54 78 79 90 84 89 79 61 54 49 57 56 56 54 54 53 52 51 50 41 43 39 27 32 34 32 33 35 36 29
54 63 47 27 50 73 84 85 88 81 71 59 48 51 56 55 51 49 48 51 49 54 47 42 45 44 39 35 37 38 40 38 34
46 32 43 39 104 89 92 83 86 77 69 60 50 44 49 55 52 49 50 52 55 51 48 48 45 48 50 52 48 46 46 46 40
69 65 22 39 94 93 81 69 69 74 63 55 50 48 42 48 52 51 50 49 52 57 57 53 60 60 57 54 51 53 56 53 52
61 75 51 39 63 81 70 64 62 64 58 55 52 49 41 45 45 52 55 57 51 53 52 54 53 60 63 64 64 61 58 63 61
55 67 67 53 74 67 58 52 58 56 65 57 51 44 35 36 43 45 51 54 52 49 49 52 55 56 57 59 61 62 60 62 65
58 48 42 53 61 65 63 59 55 49 50 43 45 35 36 34 33 41 46 50 50 47 49 55 52 61 57 57 59 65 66 64 65
30 17 34 50 50 45 44 42 41 39 38 38 41 36 34 32 33 34 34 36 39 42 47 49 64 59 58 59 54 67 70 71 69
46 63 49 32 40 38 35 33 32 34 35 31 29 32 35 39 34 33 35 35 35 37 41 47 55 64 71 74 75 80 77 72 78
70 59 38 21 14 45 44 40 35 33 28 29 26 29 30 26 22 31 34 37 40 45 50 53 59 65 62 68 77 67 63 70 75
52 57 70 61 43 33 34 42 46 37 30 30 32 27 20 20 16 15 20 27 35 41 48 54 58 68 74 78 83 82 81 73 72
49 55 49 56 43 39 36 30 27 36 32 29 22 18 15 6 2 9 15 21 31 43 53 61 68 73 77 82 89 95 89 74 73
60 55 59 63 50 38 31 26 32 32 30 23 20 17 12 7 2 11 20 30 38 46 52 58 64 70 78 80 79 80 91 93 74
43 47 40 36 41 44 37 30 24 33 27 22 18 21 17 13 17 26 35 44 46 48 53 49 46 48 53 56 44 46 56 66 84
45 41 37 31 41 42 35 24 24 34 30 23 29 26 22 19 22 33 43 47 52 59 62 52 37 33 35 37 43 44 41 47 58
49 47 39 34 30 27 23 30 39 41 35 33 33 27 22 21 27 34 40 44 53 62 66 60 50 34 29 24 25 31 35 51 49
34 32 28 24 21 24 27 36 40 43 39 32 29 25 17 16 21 28 34 43 51 52 58 60 58 52 42 29 19 12 22 33 33
29 26 24 22 22 22 23 41 36 45 40 31 26 19 13 12 18 23 30 39 45 51 52 49 49 46 40 37 38 37 33 40 31
Wind_Direction_850mb
196 189 190 186 187 189 185 193 202 201 200 204 205 200 202 208 207 202 209 220 222 227 226 238 243 231 240 240 247 249 243 250 264
172 181 185 185 191 193 209 202 202 205 200 206 209 206 201 210 216 215 213 222 224 227 231 226 226 236 242 239 244 246 247 255 258
165 179 170 190 199 202 193 198 200 209 208 207 211 212 209 208 213 219 222 225 227 230 236 238 234 238 244 237 235 246 247 246 250
168 204 211 196 233 221 199 194 202 206 206 207 212 213 215 215 214 215 217 221 222 224 226 232 235 238 237 239 249 241 250 256 254
143 171 196 251 222 203 191 190 195 203 205 211 216 219 218 218 221 222 222 222 225 229 227 222 229 236 246 252 251 239 238 249 255
132 146 156 286 177 176 174 179 194 203 205 213 219 219 225 226 227 230 234 233 225 228 232 231 230 234 237 244 246 245 248 249 251
179 177 140 206 176 177 180 186 195 199 209 213 218 221 232 229 231 234 239 243 242 239 233 238 237 235 241 244 248 249 247 249 251
175 160 166 177 171 173 174 182 192 203 205 209 219 227 231 235 235 241 244 250 248 250 247 248 250 252 248 248 249 250 246 244 247
195 183 183 167 143 150 168 174 171 169 185 191 199 207 219 230 238 243 250 253 256 257 257 261 259 257 253 252 256 258 257 251 248
122 83 149 158 161 160 161 171 185 188 189 193 203 202 204 220 232 243 248 252 254 255 251 256 252 253 251 248 245 263 255 256 252
147 165 166 166 162 166 174 179 179 183 191 195 196 205 209 216 227 237 239 244 245 247 251 252 252 253 253 255 257 254 253 251 251
193 185 164 146 206 174 173 179 178 186 194 176 180 197 208 217 236 247 262 265 268 269 269 268 265 263 258 252 255 264 264 252 250
171 143 141 164 198 200 185 182 173 161 178 188 192 213 221 246 263 270 282 288 288 283 278 274 268 265 260 255 255 256 258 257 254
138 168 161 174 194 191 187 183 177 168 186 190 199 209 252 215 262 321 330 321 309 298 289 280 273 266 262 259 254 252 252 253 253
133 138 157 162 164 171 182 178 170 169 190 198 207 225 191 164 12 0 351 343 339 335 321 298 284 277 269 263 259 257 250 247 247
141 143 140 165 173 177 179 184 194 183 191 200 220 169 136 109 75 43 24 12 4 354 344 322 304 296 290 284 273 264 251 245 238
142 158 173 180 181 184 183 181 181 177 180 187 167 140 119 100 60 40 33 27 23 18 13 2 336 312 297 281 260 258 264 254 238
154 149 158 179 190 184 177 171 173 170 173 173 156 138 118 92 59 45 43 34 31 26 27 19 12 2 337 312 259 243 249 244 242
168 173 180 182 181 167 157 168 176 175 173 171 159 156 131 91 71 66 54 49 50 46 39 34 30 29 29 23 13 272 249 241 234
163 170 169 170 170 170 171 173 176 171 166 171 178 177 160 115 92 86 78 69 64 62 58 56 56 55 63 73 88 91 108 134 162